    Observer details:
    033 Karl Schwarzschild Observatory, Tautenburg.  Observers B. Stecklum,
        U. Laux.  Measurer B. Stecklum.  1.34-m f/3 Schmidt + CCD.
    203 GiaGa Observatory.  Observers S. Foglia, G. Galli.  Measurer G. Galli.
        0.28-m f/6.8 Schmidt-Cassegrain + CCD.
    204 Schiaparelli Observatory.  Observer L. Buzzi.  0.60-m f/4.64 reflector
        + CCD.
    246 Klet Observatory-KLENOT.  Observers M. Tichy, J. Ticha.  Measurer M. Tichy.
        1.06-m KLENOT Telescope + CCD.
    300 Bisei Spaceguard Center--BATTeRS.  Observers S. Okumura, T. Fujiwara.
        1.0-m f/3.0 reflector + CCD.
    587 Sormano.  Observers A. Fumagalli, P. Sicoli, A. Testa.  Measurer P. Sicoli.
        0.5-m f/6.8 reflector + CCD.
    595 Farra d'Isonzo.  Observers L. Bittesini, F. Bressan, E. Pettarin, F. Piani.
        Measurer E. Pettarin.  0.61-m f/4.0 reflector + CCD.
    958 Observatoire de Dax.  Observers P. Dupouy, J. B. de Vanssay.  Measurer
        P. Dupouy.  0.43-m f/2.7 reflector + CCD.
    C77 Bernezzo Observatory.  Observer A. Mantero.  0.25-m f/4 reflector + CCD.
    G96 Mt. Lemmon Survey.  Observer A. D. Grauer.  Measurers E. J. Christensen,
        D. C. Fuls, A. R. Gibbs, A. D. Grauer, J. A. Johnson, R. A. Kowalski,
        S. M. Larson, G. J. Leonard, R. G. Matheny, R. L. Seaman, F. C. Shelly.
        1.5-m reflector + 10K CCD.
    H21 Astronomical Research Observatory, Westfield.  Observer R. Holmes.
        Measurers S. Foglia, L. Buzzi, T. Linder, R. Holmes.  0.61-m f/4.5
        astrograph + CCD.
    H36 Sandlot Observatory, Scranton.  Observer G. Hug.  0.56-m reflector + CCD.
    I52 Steward Observatory, Mt. Lemmon Station.  Observers J. A. Johnson,
        R. A. Kowalski.  Measurers E. J. Christensen, D. C. Fuls, A. R. Gibbs,
        A. D. Grauer, J. A. Johnson, R. A. Kowalski, S. M. Larson, G. J. Leonard,
        R. G. Matheny, R. L. Seaman, F. C. Shelly.  1.0-m reflector + CCD.
    I93 St Pardon de Conques.  Observer F. Losse.  0.40-m f/3.7 reflector + CCD.
    K51 Osservatorio del Celado, Castello Tesino.  Observers G. Favero, R. Furgoni.
        Measurer R. Furgoni.  0.80-m f/4 reflector + CCD.
    
    Orbital elements:
    2016 XA18                                                Earth MOID = 0.0217 AU
    Epoch 2017 Feb. 16.0 TT = JDT 2457800.5                 MPC
    M   8.50556              (2000.0)            P               Q
    n   0.37465300     Peri.  294.10212     -0.91368188     +0.27463659
    a   1.9056797      Node   262.96813     -0.16449552     -0.92395841
    e   0.8291325      Incl.   17.56999     -0.37165392     -0.26622471
    P   2.63           H   23.1           G   0.15           U   7
    Residuals in seconds of arc
    161205 G96  0.3+  0.8-    161205 246  0.6-  0.1-    161206 246  0.4+  0.1-
    161205 G96  0.2+  0.5-    161205 246  0.2+  0.6-    161206 246  0.4-  0.6-
    161205 G96  0.2+  0.0     161205 246  0.3-  0.6-    161206 595  0.3+  1.0-
    161205 G96  0.7+  0.2+    161205 I93  0.7-  0.3-    161206 C77  0.3+  0.4-
    161205 G96  0.1+  0.1+    161205 246  0.2-  0.4+    161206 C77  0.8+  0.2-
    161205 G96  1.1-  1.1-    161205 246  0.4+  0.4+    161206 958  1.6-  0.8+
    161205 G96  0.0   0.1-    161205 I93  0.1-  0.1-    161206 595  1.0+  0.2+
    161205 G96  0.2-  0.3+    161205 I93  0.5-  0.2-    161206 C77  0.1+  0.5-
    161205 G96  0.5+  0.1+    161205 I93  0.3+  0.0     161206 958  1.6-  0.3-
    161205 G96  0.7+  0.2+    161205 204  0.3+  0.3-    161206 595  0.7+  1.1-
    161205 033  0.2-  0.1+    161205 204  0.4+  0.0     161206 958  0.8-  0.3-
    161205 033  0.3-  0.3+    161206 204  0.0   0.3-    161207 H21  0.4+  0.4-
    161205 033  0.5-  0.5+    161206 H36  1.4-  0.1-    161207 H21  0.6+  0.3-
    161205 587  0.1-  0.2-    161206 H36  0.1+  0.1+    161207 H21  0.6+  0.2-
    161205 587  0.8-  0.5+    161206 H36  0.1+  0.6+    161207 203  0.6-  0.4+
    161205 587  1.2-  0.5+    161206 I52  0.4-  0.7-    161208 203  0.3-  0.4+
    161205 587  0.6-  0.6+    161206 I52  0.2-  0.3-    161208 203  0.3-  0.5-
    161205 033  0.3-  0.2+    161206 I52  0.2-  1.0-    161208 H36  0.9-  0.2+
    161205 033  0.0   0.1-    161206 033  1.0+  0.3+    161208 H36  1.0-  0.6+
    161205 033  0.2-  0.0     161206 I52  0.7-  0.4-    161208 I52  0.1-  0.2+
    161205 K51  0.5-  0.4+    161206 033  0.6+  0.1+    161208 I52  0.4-  0.2+
    161205 K51  0.7-  0.4+    161206 033  1.2+  0.0     161208 I52  0.1-  0.0
    161205 K51  0.6-  0.4+    161206 033  0.1+  0.0     161208 I52  0.2-  0.2+
    161205 I93  0.3-  0.2-    161206 033  0.4-  0.1+    161208 300  0.8-  0.1+
    161205 I93  0.4-  0.5+    161206 033  0.4+  0.1-    161208 300  0.2-  0.5+
    161205 I93  0.2-  0.0     161206 033  0.7+  0.2-    161208 300  1.2+  0.3+
    161205 246 (5.0+  2.5+)   161206 033  0.4+  0.2-    161208 300  1.2+  0.5-
    161205 246  0.9+  0.6+    161206 246  0.4-  0.6+    161208 300  1.1+  0.4-
    
    Ephemeris:
    2016 XA18                a,e,i = 1.91, 0.83, 18                  q = 0.3256
    Date    TT    R. A. (2000) Decl.     Delta      r     Elong.  Phase     V
    2016 11 08    05 53 15.7 +39 30 33   0.6175  1.4915   134.8    28.1    24.2
    ...
    2016 11 23    05 45 16.2 +42 10 04   0.3423  1.2909   148.1    23.8    22.4
    ...
    2016 12 01    05 19 04.9 +44 55 07   0.2057  1.1754   154.7    21.0    21.0
    ...
    2016 12 07    04 06 17.5 +48 27 37   0.1105  1.0843   152.4    24.9    19.6
    2016 12 08    03 38 51.5 +48 53 59   0.09597 1.0687   149.3    28.0    19.4
    2016 12 09    03 01 47.2 +48 49 34   0.08230 1.0530   144.5    32.9    19.2
    ...
    2016 12 15    21 24 27.6 -00 13 34   0.06080 0.9564    61.2   115.6    21.4
    ...
    2016 12 23    19 29 52.8 -28 40 15   0.1750  0.8208    19.5   156.4    28.7
    ...
    2017 01 07    18 48 56.5 -33 31 37   0.4533  0.5488    12.2   157.7    30.3
    
    A. U. Tomatic                (C) Copyright 2016 MPC           M.P.E.C. 2016-X74
    

    Read MPEC 2016-X73 Read MPEC 2016-X75


    MPEC number:

    Enter an MPEC number in one of the following forms:

    • 1997-B01 (the full form)
    • J97B01 (the packed version of the full form)
    • B01 (the abbreviated form)